Regional Weather Roundup
Issued by NWS

Home | Current Version | Previous Version | Text Only | Print | Product List | Glossary Off
Versions: 1 2 3 4 5 6 7 8 9 10 11 12 13 14 15 16 17 18 19 20 21 22 23 24 25 26 27 28 29 30 31 32 33 34 35 36 37 38 39 40 41 42 43 44 45 46 47 48 49 50

000
ASUS43 KFSD 010302
RWRSD

WEATHER ROUNDUP FOR SOUTH DAKOTA
NATIONAL WEATHER SERVICE SIOUX FALLS SD
1000 PM CDT TUE MAY 31 2016

NOTE: "FAIR" INDICATES FEW OR NO CLOUDS BELOW 12,000 FEET WITH NO
SIGNIFICANT WEATHER AND/OR OBSTRUCTIONS TO VISIBILITY.


SDZ001>005-009-010-012>017-010400-
NORTHWEST AND NORTH CENTRAL SOUTH DAKOTA

CITY           SKY/WX    TMP DP  RH WIND       PRES   REMARKS
BUFFALO          N/A     51  47  86 NW14      29.95R
FAITH            N/A     52  44  74 NW18G28   29.96R
MOBRIDGE       PTCLDY    56  45  66 NW22G32   29.83R
$$

SDZ012>016-024>037-041>051-057-063-072>074-010400-
SOUTHWEST AND SOUTH CENTRAL SOUTH DAKOTA

CITY           SKY/WX    TMP DP  RH WIND       PRES   REMARKS
RAPID CTY ARPT CLEAR     50  40  68 NW10      30.05S
PIERRE         CLOUDY    57  46  66 NW17G29   29.91R
CUSTER         PTCLDY    46  35  65 NW9       30.11R
ELLSWORTH AFB  CLEAR     50  42  75 NW9       30.05R
PHILIP         CLEAR     54  46  74 W9        30.00R
PINE RIDGE     CLEAR     54  39  57 N5        30.08R
WINNER         FAIR      58  46  64 W12       29.99R
$$

SDZ004>011-016>023-039-040-010400-
NORTHEAST SOUTH DAKOTA

CITY           SKY/WX    TMP DP  RH WIND       PRES   REMARKS
ABERDEEN       MOCLDY    59  49  69 W18       29.78R
WATERTOWN      MOCLDY    60  45  57 W16G29    29.82R
BROOKINGS      CLEAR     61  49  64 W16       29.87R
SISSETON         N/A     60  48  64 W29G43    29.71R
$$

SDZ017-020-022-023-036>040-048>070-010400-
SOUTHEAST SOUTH DAKOTA

CITY           SKY/WX    TMP DP  RH WIND       PRES   REMARKS
SIOUX FALLS    PTCLDY    66  49  54 W9        29.90R
HURON          PTCLDY    60  46  59 W13       29.88R
MITCHELL       CLEAR     62  50  64 W14       29.93R
YANKTON        CLEAR     64  48  55 NW18      29.92R
$$

ABBREVIATIONS USED IN REMARKS
   TC - TEMPERATURE IN CELSIUS
  WCI - WIND CHILL INDEX
   HX - HEAT INDEX
  VSB - VISIBILITY




USA.gov is the U.S. government's official web portal to all federal, state and local government web resources and services.